When you browse on this site, cookies collect data to enhance your experience and personalize the content and advertising you see.
Visit our Privacy Policy to learn more. By continuing to use the site, you agree to this use of cookies and data.
  • In Germany
  • List of Countries
  • For 7 days
  • Water Temperature
  • Satellite Maps
  • Weather Map
  • Weather Widgets
  • user-avatar
    Login

    Hourly Weather Patna

    Today, 17 December, Monday

    Time Temperature Precipitation Wind Pressure Humidity
    00:00 +21°C° 0 mm 1 mps 759 mmHg 32%
    01:00 +19°C° 0 mm 2 mps 759 mmHg 32%
    02:00 +19°C° 0 mm 2 mps 759 mmHg 33%
    03:00 +19°C° 0 mm 2 mps 758 mmHg 33%
    04:00 +18°C° 0 mm 2 mps 758 mmHg 34%
    05:00 +19°C° 0 mm 1 mps 758 mmHg 35%
    06:00 +18°C° 0 mm 2 mps 758 mmHg 36%
    07:00 +19°C° 0 mm 1 mps 759 mmHg 37%
    08:00 +20°C° 0 mm 1 mps 759 mmHg 37%
    09:00 +20°C° 0 mm 1 mps 760 mmHg 38%
    10:00 +21°C° 0 mm 1 mps 759 mmHg 36%
    11:00 +22°C° 0 mm 1 mps 759 mmHg 34%
    12:00 +23°C° 0 mm 1 mps 759 mmHg 34%
    13:00 +23°C° 0 mm 1 mps 759 mmHg 34%
    14:00 +23°C° 0 mm 1 mps 758 mmHg 35%
    15:00 +23°C° 0 mm 1 mps 758 mmHg 35%
    16:00 +23°C° 0 mm 1 mps 758 mmHg 37%
    17:00 +21°C° 0 mm 2 mps 758 mmHg 38%
    18:00 +20°C° 0 mm 2 mps 758 mmHg 40%
    19:00 +20°C° 0 mm 2 mps 758 mmHg 41%
    20:00 +20°C° 0 mm 2 mps 759 mmHg 41%
    21:00 +19°C° 0 mm 2 mps 759 mmHg 42%
    22:00 +19°C° 0 mm 2 mps 759 mmHg 42%
    23:00 +19°C° 0 mm 2 mps 759 mmHg 42%

    Tomorrow, 18 December, Tuesday

    Time Temperature Precipitation Wind Pressure Humidity
    00:00 +19°C° 0 mm 2 mps 759 mmHg 43%
    01:00 +19°C° 0.1 mm 2 mps 759 mmHg 45%
    02:00 +18°C° 0.1 mm 2 mps 758 mmHg 48%
    03:00 +18°C° 0.1 mm 2 mps 758 mmHg 51%
    04:00 +17°C° 0.1 mm 2 mps 758 mmHg 54%
    05:00 +17°C° 0.1 mm 2 mps 758 mmHg 57%
    06:00 +17°C° 0.1 mm 2 mps 758 mmHg 60%
    07:00 +17°C° 0.1 mm 2 mps 758 mmHg 61%
    08:00 +17°C° 0.1 mm 2 mps 759 mmHg 62%
    09:00 +17°C° 0.1 mm 2 mps 760 mmHg 63%
    10:00 +18°C° 0.1 mm 2 mps 760 mmHg 62%
    11:00 +19°C° 0.1 mm 2 mps 760 mmHg 60%
    12:00 +19°C° 0.1 mm 2 mps 760 mmHg 59%
    13:00 +20°C° 0 mm 2 mps 759 mmHg 56%
    14:00 +21°C° 0 mm 2 mps 758 mmHg 53%
    15:00 +21°C° 0 mm 2 mps 757 mmHg 49%
    16:00 +21°C° 0 mm 2 mps 757 mmHg 52%
    17:00 +20°C° 0 mm 2 mps 757 mmHg 55%
    18:00 +20°C° 0 mm 1 mps 757 mmHg 58%
    19:00 +18°C° 0 mm 2 mps 757 mmHg 63%
    20:00 +17°C° 0 mm 2 mps 757 mmHg 67%
    21:00 +17°C° 0 mm 3 mps 757 mmHg 72%
    22:00 +16°C° 0 mm 3 mps 757 mmHg 76%
    23:00 +16°C° 0 mm 2 mps 757 mmHg 79%

    Day after tomorrow, 19 December, Wednesday

    Time Temperature Precipitation Wind Pressure Humidity
    00:00 +15°C° 0 mm 2 mps 757 mmHg 82%
    01:00 +15°C° 0 mm 2 mps 756 mmHg 84%
    02:00 +15°C° 0 mm 2 mps 756 mmHg 86%
    03:00 +14°C° 0 mm 2 mps 756 mmHg 88%
    04:00 +14°C° 0 mm 2 mps 756 mmHg 87%
    05:00 +14°C° 0 mm 2 mps 756 mmHg 87%
    06:00 +14°C° 0 mm 2 mps 756 mmHg 86%
    07:00 +15°C° 0 mm 2 mps 756 mmHg 78%
    08:00 +16°C° 0 mm 3 mps 757 mmHg 69%
    09:00 +17°C° 0 mm 3 mps 758 mmHg 61%
    10:00 +19°C° 0 mm 3 mps 758 mmHg 51%
    11:00 +21°C° 0 mm 3 mps 758 mmHg 41%
    12:00 +24°C° 0 mm 3 mps 757 mmHg 32%
    13:00 +25°C° 0 mm 3 mps 757 mmHg 29%
    14:00 +25°C° 0 mm 3 mps 756 mmHg 27%
    15:00 +26°C° 0 mm 3 mps 755 mmHg 24%
    16:00 +24°C° 0 mm 2 mps 755 mmHg 26%
    17:00 +23°C° 0 mm 2 mps 755 mmHg 29%
    18:00 +21°C° 0 mm 1 mps 755 mmHg 31%
    19:00 +20°C° 0 mm 1 mps 756 mmHg 32%
    20:00 +20°C° 0 mm 1 mps 757 mmHg 33%
    21:00 +19°C° 0 mm 1 mps 757 mmHg 34%
    22:00 +19°C° 0 mm 1 mps 757 mmHg 34%
    23:00 +18°C° 0 mm 1 mps 757 mmHg 35%

    20 December, Thursday

    Time Temperature Precipitation Wind Pressure Humidity
    00:00 +18°C° 0 mm 1 mps 757 mmHg 36%
    01:00 +16°C° 0 mm 1 mps 757 mmHg 37%
    02:00 +16°C° 0 mm 1 mps 757 mmHg 38%
    03:00 +15°C° 0 mm 1 mps 757 mmHg 40%
    04:00 +15°C° 0 mm 1 mps 757 mmHg 41%
    05:00 +14°C° 0 mm 1 mps 757 mmHg 42%
    06:00 +14°C° 0 mm 1 mps 757 mmHg 43%
    07:00 +15°C° 0 mm 1 mps 757 mmHg 41%
    08:00 +16°C° 0 mm 1 mps 758 mmHg 39%
    09:00 +19°C° 0 mm 1 mps 759 mmHg 36%
    10:00 +20°C° 0 mm 1 mps 758 mmHg 33%
    11:00 +22°C° 0 mm 1 mps 758 mmHg 30%
    12:00 +24°C° 0 mm 2 mps 758 mmHg 26%
    13:00 +25°C° 0 mm 2 mps 757 mmHg 25%
    14:00 +25°C° 0 mm 2 mps 756 mmHg 24%
    15:00 +26°C° 0 mm 2 mps 755 mmHg 22%
    16:00 +24°C° 0 mm 2 mps 755 mmHg 25%
    17:00 +23°C° 0 mm 2 mps 755 mmHg 28%
    18:00 +20°C° 0 mm 2 mps 755 mmHg 30%
    19:00 +19°C° 0 mm 2 mps 755 mmHg 32%
    20:00 +19°C° 0 mm 2 mps 756 mmHg 33%
    21:00 +18°C° 0 mm 2 mps 756 mmHg 34%
    22:00 +17°C° 0 mm 2 mps 756 mmHg 35%
    23:00 +17°C° 0 mm 2 mps 756 mmHg 36%

    21 December, Friday

    Time Temperature Precipitation Wind Pressure Humidity
    00:00 +16°C° 0 mm 2 mps 756 mmHg 38%
    01:00 +16°C° 0 mm 2 mps 756 mmHg 39%
    02:00 +15°C° 0 mm 2 mps 755 mmHg 40%
    03:00 +15°C° 0 mm 2 mps 755 mmHg 41%
    04:00 +14°C° 0 mm 2 mps 755 mmHg 42%
    05:00 +14°C° 0 mm 2 mps 755 mmHg 43%
    06:00 +13°C° 0 mm 2 mps 756 mmHg 44%
    07:00 +14°C° 0 mm 2 mps 756 mmHg 42%
    08:00 +16°C° 0 mm 2 mps 757 mmHg 41%
    09:00 +17°C° 0 mm 2 mps 758 mmHg 39%
    10:00 +18°C° 0 mm 2 mps 758 mmHg 35%
    11:00 +20°C° 0 mm 2 mps 758 mmHg 32%
    12:00 +23°C° 0 mm 2 mps 757 mmHg 28%
    13:00 +24°C° 0 mm 2 mps 757 mmHg 26%
    14:00 +25°C° 0 mm 2 mps 756 mmHg 25%
    15:00 +25°C° 0 mm 2 mps 755 mmHg 23%
    16:00 +24°C° 0 mm 2 mps 755 mmHg 25%
    17:00 +21°C° 0 mm 2 mps 755 mmHg 28%
    18:00 +20°C° 0 mm 2 mps 755 mmHg 30%
    19:00 +19°C° 0 mm 2 mps 756 mmHg 31%
    20:00 +19°C° 0 mm 1 mps 756 mmHg 32%
    21:00 +18°C° 0 mm 1 mps 756 mmHg 34%
    22:00 +18°C° 0 mm 1 mps 756 mmHg 34%
    23:00 +16°C° 0 mm 1 mps 756 mmHg 35%

    22 December, Saturday

    Time Temperature Precipitation Wind Pressure Humidity
    00:00 +16°C° 0 mm 1 mps 756 mmHg 36%
    01:00 +15°C° 0 mm 1 mps 756 mmHg 37%
    02:00 +15°C° 0 mm 1 mps 756 mmHg 38%
    03:00 +14°C° 0 mm 1 mps 756 mmHg 39%
    04:00 +14°C° 0 mm 1 mps 756 mmHg 39%
    05:00 +14°C° 0 mm 1 mps 756 mmHg 40%
    06:00 +13°C° 0 mm 1 mps 756 mmHg 41%
    07:00 +14°C° 0 mm 1 mps 757 mmHg 39%
    08:00 +16°C° 0 mm 1 mps 758 mmHg 37%
    09:00 +18°C° 0 mm 1 mps 759 mmHg 35%
    10:00 +20°C° 0 mm 1 mps 759 mmHg 32%
    11:00 +22°C° 0 mm 1 mps 758 mmHg 29%
    12:00 +24°C° 0 mm 1 mps 758 mmHg 25%
    13:00 +24°C° 0 mm 1 mps 757 mmHg 24%
    14:00 +25°C° 0 mm 1 mps 757 mmHg 22%
    15:00 +25°C° 0 mm 1 mps 756 mmHg 21%
    16:00 +24°C° 0 mm 1 mps 756 mmHg 23%
    17:00 +22°C° 0 mm 1 mps 756 mmHg 25%
    18:00 +21°C° 0 mm 1 mps 756 mmHg 27%
    19:00 +20°C° 0 mm 1 mps 756 mmHg 29%
    20:00 +19°C° 0 mm 1 mps 757 mmHg 30%
    21:00 +19°C° 0 mm 1 mps 757 mmHg 31%
    22:00 +18°C° 0 mm 1 mps 757 mmHg 32%
    23:00 +18°C° 0 mm 1 mps 757 mmHg 33%
    Show more